{"data":{"norad_id":53622,"intl_designator":"2022-104AL","name":"STARLINK-4568","alt_names":[],"object_type":"PAYLOAD","status":"ACTIVE","operator":null,"country":"US","launch_date":"2022-08-28","launch_site_code":"AFETR","launch_vehicle":null,"mission":null,"orbit_class":"UNKNOWN","rcs_meters":null,"size_class":null,"mass_kg":null,"dimensions":null,"purposes":["comms"],"wikipedia_slug":null,"has_3d_model":false,"image_url":null,"decayed_at":null,"tle_current":{"epoch":"2026-05-25T00:26:07.467072Z","epoch_age_seconds":73392,"freshness":"FRESH","line1":"1 53622U 22104AL  26145.01814198  .00000861  00000+0  72204-4 0  9990","line2":"2 53622  53.2140 251.0722 0001314  91.8997 268.2146 15.08834495207270","mean_motion":15.08834495,"eccentricity":0.0001314,"inclination_deg":53.214,"raan_deg":251.0722,"arg_perigee_deg":91.8997,"mean_anomaly_deg":268.2146,"bstar":7.2204e-5,"rev_number":20727,"period_min":95.437902882781,"perigee_km":538.85120390383,"apogee_km":540.66922729208,"semimajor_km":6917.897215598,"source":"CELESTRAK","updated_at":"2026-05-25T13:38:17.479531Z"}}}